EW9931 Weather Reports


time (UTC)temp
C
wind
direction
speed
KPH
gust
KPH
rain 1hr
cm
rain 24hr
cm
rain mn
cm
humidity
%
barometer
mb
20260831094543 13 179 0.0 0.0 0.00 0.00 0.00 36 1001.2
20260831093048 13 178 1.6 0.0 0.00 0.00 0.00 35 1001.0
20260831091541 13 144 1.6 0.0 0.00 0.00 0.00 37 1000.9
20260831090040 13 164 0.0 0.0 0.00 0.00 0.00 42 1001.3
20260831084544 13 165 0.0 0.0 0.00 0.00 0.00 41 1001.6
20260831083037 14 137 0.0 0.0 0.00 0.00 0.00 41 1001.6
20260831081538 14 184 0.0 0.0 0.00 0.00 0.00 36 1001.9
20260831080032 14 160 1.6 0.0 0.00 0.00 0.00 30 1001.7
20260831074534 14 210 1.6 0.0 0.00 0.00 0.00 33 1001.7
20260831073032 14 131 1.6 0.0 0.00 0.00 0.00 31 1001.8
20260831071536 14 185 0.0 0.0 0.00 0.00 0.00 34 1001.8
20260831070030 14 203 0.0 0.0 0.00 0.00 0.00 35 1002.8
20260831064530 14 182 0.0 0.0 0.00 0.00 0.00 33 1002.7
20260831063033 14 193 1.6 0.0 0.00 0.00 0.00 34 1002.4
20260831061529 14 145 1.6 0.0 0.00 0.00 0.00 35 1002.3
20260831060028 14 208 0.0 0.0 0.00 0.00 0.00 36 1002.8
20260831054527 14 160 0.0 0.0 0.00 0.00 0.00 36 1002.8
20260831053043 15 162 0.0 0.0 0.00 0.00 0.00 36 1002.8
20260831051531 15 136 1.6 0.0 0.00 0.00 0.00 35 1003.2
20260831050026 15 191 0.0 0.0 0.00 0.00 0.00 34 1003.7
20260831044526 15 161 0.0 0.0 0.00 0.00 0.00 34 1003.7
20260831043025 15 133 1.6 0.0 0.00 0.00 0.00 34 1003.5
20260831041525 15 114 0.0 0.0 0.00 0.00 0.00 34 1003.4
20260831040024 15 171 0.0 0.0 0.00 0.00 0.00 34 1003.8
20260831034524 15 154 0.0 0.0 0.00 0.00 0.00 35 1003.7
20260831033031 15 140 0.0 0.0 0.00 0.00 0.00 36 1003.6
20260831031527 15 147 0.0 0.0 0.00 0.00 0.00 35 1003.4
20260831030022 15 140 0.0 0.0 0.00 0.00 0.00 37 1004.6
20260831024522 15 195 0.0 0.0 0.00 0.00 0.00 42 1004.3
20260831023033 16 175 1.6 0.0 0.00 0.00 0.00 45 1004.1
20260831021534 16 202 3.2 0.0 0.00 0.00 0.00 48 1003.7
20260831020039 16 202 3.2 0.0 0.00 0.00 0.00 53 1003.4
20260831014520 17 205 3.2 0.0 0.00 0.00 0.00 55 1003.8
20260831013020 17 205 3.2 0.0 0.00 0.00 0.00 54 1003.9
20260831011524 18 186 1.6 0.0 0.00 0.00 0.00 52 1003.5
20260831010019 18 224 3.2 0.0 0.00 0.00 0.00 50 1003.1
20260831004518 19 117 3.2 0.0 0.00 0.00 0.00 49 1002.7
20260831003017 20 219 4.8 0.0 0.00 0.00 0.00 47 1002.7
20260831001525 20 116 3.2 0.0 0.00 0.00 0.00 45 1002.2
20260831000020 21 200 3.2 0.0 0.00 0.00 0.00 41 1001.6
20260830234526 21 212 1.6 0.0 0.00 0.00 0.00 38 1001.9
20260830233014 22 196 3.2 0.0 0.00 0.00 0.00 36 1001.9
20260830231518 22 222 1.6 0.0 0.00 0.00 0.00 35 1001.6
20260830230012 22 208 3.2 0.0 0.00 0.00 0.00 34 1002.0
20260830224512 22 222 1.6 0.0 0.00 0.00 0.00 32 1001.6
20260830223011 22 157 1.6 0.0 0.00 0.00 0.00 32 1002.0
20260830221513 22 144 3.2 0.0 0.00 0.00 0.00 31 1002.2
20260830220009 22 150 3.2 0.0 0.00 0.00 0.00 27 1002.3
20260830214507 22 162 1.6 0.0 0.00 0.00 0.00 25 1002.4
20260830213007 22 205 1.6 0.0 0.00 0.00 0.00 26 1002.5
20260830211504 22 130 1.6 0.0 0.00 0.00 0.00 27 1002.7
20260830210006 22 209 3.2 0.0 0.00 0.00 0.00 28 1002.8
20260830204503 22 171 3.2 0.0 0.00 0.00 0.00 27 1002.7
20260830203002 22 264 1.6 0.0 0.00 0.00 0.00 26 1002.9
20260830201502 22 155 1.6 0.0 0.00 0.00 0.00 28 1002.8
20260830200002 22 217 1.6 0.0 0.00 0.00 0.00 28 1002.8
20260830194501 22 127 1.6 0.0 0.00 0.00 0.00 28 1003.0
20260830193100 22 191 1.6 0.0 0.00 0.00 0.00 27 1003.1
20260830191557 22 131 1.6 0.0 0.00 0.00 0.00 28 1003.8
20260830190041 21 219 1.6 0.0 0.00 0.00 0.00 26 1003.9
20260830184538 21 210 0.0 0.0 0.00 0.00 0.00 28 1003.8
20260830183039 21 230 1.6 0.0 0.00 0.00 0.00 30 1004.1
20260830181532 20 203 0.0 0.0 0.00 0.00 0.00 30 1004.2
20260830180029 20 237 1.6 0.0 0.00 0.00 0.00 28 1004.3
20260830174526 20 179 0.0 0.0 0.00 0.00 0.00 29 1004.3
20260830173024 20 188 0.0 0.0 0.00 0.00 0.00 30 1004.5
20260830171523 19 179 0.0 0.0 0.00 0.00 0.00 30 1004.4
20260830170020 19 195 0.0 0.0 0.00 0.00 0.00 29 1004.3
20260830164513 18 152 0.0 0.0 0.00 0.00 0.00 30 1004.3
20260830163014 18 212 0.0 0.0 0.00 0.00 0.00 32 1004.2
20260830161512 18 217 0.0 0.0 0.00 0.00 0.00 32 1004.6
20260830154557 16 126 0.0 0.0 0.00 0.00 0.00 46 1004.6
20260830153059 15 126 0.0 0.0 0.00 0.00 0.00 50 1005.1
20260830151554 14 126 0.0 0.0 0.00 0.00 0.00 56 1005.1
20260830150050 14 126 0.0 0.0 0.00 0.00 0.00 54 1005.1
20260830144549 14 126 0.0 0.0 0.00 0.00 0.00 52 1005.2
20260830143104 13 126 0.0 0.0 0.00 0.00 0.00 51 1005.8
20260830141548 13 126 0.0 0.0 0.00 0.00 0.00 51 1005.5
20260830140048 13 126 0.0 0.0 0.00 0.00 0.00 50 1005.0
20260830134548 13 126 0.0 0.0 0.00 0.00 0.00 49 1004.8
20260830133047 13 126 0.0 0.0 0.00 0.00 0.00 48 1004.2
20260830131544 13 126 0.0 0.0 0.00 0.00 0.00 48 1004.1
20260830130053 14 126 0.0 0.0 0.00 0.00 0.00 49 1003.0
20260830124540 14 126 0.0 0.0 0.00 0.00 0.00 50 1002.7
20260830123040 14 126 0.0 0.0 0.00 0.00 0.00 50 1002.6
20260830121542 14 126 0.0 0.0 0.00 0.00 0.00 50 1002.6
20260830120047 14 126 0.0 0.0 0.00 0.00 0.00 50 1001.6
20260830114604 14 126 0.0 0.0 0.00 0.00 0.00 51 1001.5
20260830113043 14 126 0.0 0.0 0.00 0.00 0.00 52 1001.5
20260830111537 14 126 0.0 0.0 0.00 0.00 0.00 54 1001.6
20260830110034 15 126 0.0 0.0 0.00 0.00 0.00 54 1001.1
20260830104529 15 126 0.0 0.0 0.00 0.00 0.00 54 1000.6
20260830103026 15 126 0.0 0.0 0.00 0.00 0.00 53 1000.6
20260830101521 15 126 0.0 0.0 0.00 0.00 0.00 52 1000.6
20260830100016 15 126 0.0 0.0 0.00 0.00 0.00 51 1000.7